FW2422 Weather Reports


time (UTC)temp
C
wind
direction
speed
KPH
gust
KPH
rain 1hr
cm
rain 24hr
cm
rain mn
cm
humidity
%
barometer
mb
20260906194533 37 79 3.2 8.0 0.00 0.00 0.00 41 1011.6
20260906193035 37 132 3.2 11.3 0.00 0.00 0.00 41 1011.8
20260906191529 36 122 6.4 19.3 0.00 0.00 0.00 41 1012.0
20260906190029 36 105 3.2 8.0 0.00 0.00 0.00 41 1012.1
20260906184532 37 129 6.4 14.5 0.00 0.00 0.00 42 1012.2
20260906183033 36 106 8.0 19.3 0.00 0.00 0.00 43 1012.4
20260906181532 36 134 3.2 12.9 0.00 0.00 0.00 45 1012.7
20260906180022 35 117 4.8 14.5 0.00 0.00 0.00 47 1012.9
20260906174525 35 132 4.8 11.3 0.00 0.00 0.00 48 1013.0
20260906173014 35 108 3.2 14.5 0.00 0.00 0.00 49 1013.2
20260906171510 34 174 3.2 9.7 0.00 0.00 0.00 51 1013.4
20260906170010 34 110 3.2 11.3 0.00 0.00 0.00 51 1013.7
20260906164507 34 128 1.6 11.3 0.00 0.00 0.00 53 1014.1
20260906163004 33 96 0.0 6.4 0.00 0.00 0.00 54 1014.0
20260906161502 33 99 0.0 11.3 0.00 0.00 0.00 57 1014.0
20260906160100 33 110 3.2 9.7 0.00 0.00 0.00 57 1014.2
20260906154555 32 176 3.2 9.7 0.00 0.00 0.00 61 1014.1
20260906153054 32 102 0.0 8.0 0.00 0.00 0.00 63 1013.8
20260906151553 31 94 0.0 9.7 0.00 0.00 0.00 65 1013.8
20260906150049 30 103 0.0 4.8 0.00 0.00 0.00 68 1013.7
20260906144549 30 91 0.0 6.4 0.00 0.00 0.00 68 1013.7
20260906143045 30 110 0.0 4.8 0.00 0.00 0.00 68 1013.7
20260906141543 29 221 0.0 4.8 0.00 0.00 0.00 71 1013.8
20260906140048 30 128 0.0 3.2 0.00 0.00 0.00 71 1013.8
20260906134536 28 134 0.0 1.6 0.00 0.00 0.00 75 1013.6
20260906113057 25 88 0.0 0.0 0.00 0.00 0.00 88 1012.8
20260906111549 25 89 0.0 0.0 0.00 0.00 0.00 88 1012.6
20260906110048 25 88 0.0 0.0 0.00 0.00 0.00 88 1012.5
20260906104545 25 89 0.0 0.0 0.00 0.00 0.00 87 1012.4
20260906103052 25 89 0.0 0.0 0.00 0.00 0.00 87 1012.3
20260906093024 25 165 0.0 0.0 0.00 0.00 0.00 85 1011.8
20260906091520 25 165 0.0 0.0 0.00 0.00 0.00 85 1011.9
20260906090020 25 165 0.0 0.0 0.00 0.00 0.00 85 1011.7
20260906084521 26 165 0.0 0.0 0.00 0.00 0.00 84 1011.7
20260906074558 26 149 0.0 0.0 0.00 0.00 0.00 82 1012.0
20260906073058 26 159 0.0 0.0 0.00 0.00 0.00 82 1011.9
20260906071555 26 203 0.0 3.2 0.00 0.00 0.00 82 1011.9
20260906070055 26 127 0.0 1.6 0.00 0.00 0.00 81 1011.8
20260906064555 27 154 0.0 1.6 0.00 0.00 0.00 81 1011.8
20260906063053 27 172 0.0 0.0 0.00 0.00 0.00 80 1011.9
20260906061551 27 150 0.0 0.0 0.00 0.00 0.00 78 1012.1
20260906060049 27 155 0.0 4.8 0.00 0.00 0.00 77 1012.1
20260906054547 27 210 0.0 4.8 0.00 0.00 0.00 76 1012.2
20260906053047 27 173 0.0 4.8 0.00 0.00 0.00 76 1012.1
20260906051543 27 94 0.0 3.2 0.00 0.00 0.00 75 1012.2
20260906050044 28 311 0.0 6.4 0.00 0.00 0.00 74 1011.9
20260906044543 28 203 0.0 1.6 0.00 0.00 0.00 73 1011.9
20260906043039 28 91 0.0 6.4 0.00 0.00 0.00 72 1011.8
20260906041537 28 144 0.0 4.8 0.00 0.00 0.00 71 1011.8
20260906040037 28 157 1.6 6.4 0.00 0.00 0.00 70 1012.1
20260906034537 28 131 0.0 8.0 0.00 0.00 0.00 69 1012.0
20260906033038 29 205 1.6 8.0 0.00 0.00 0.00 68 1012.0
20260906031535 29 183 0.0 4.8 0.00 0.00 0.00 68 1011.8
20260906030034 29 164 1.6 4.8 0.00 0.00 0.00 67 1011.8
20260906024533 30 84 1.6 8.0 0.00 0.00 0.00 66 1011.9
20260905224516 38 28 0.0 1.6 0.00 0.00 0.00 37 1009.7
20260905203005 37 172 3.2 9.7 0.00 0.00 0.00 36 1010.8
20260905201503 38 231 0.0 4.8 0.00 0.00 0.00 37 1011.0
20260905200104 37 47 0.0 4.8 0.00 0.00 0.00 38 1011.2